Time,TemperatureF,DewpointF,PressureIn,WindDirection,WindDirectionDegrees,WindSpeedMPH,WindSpeedGustMPH,Humidity,HourlyPrecipIn,Conditions,Clouds,dailyrainin,SolarRadiationWatts/m^2,SoftwareType,DateUTC
2013-08-14 00:03:00,53.0,49.0,-100.00,NNW,339,4.0,10.0,86,0.00,,,0.00,0.000000,,2013-08-14 04:03:00,
2013-08-14 00:42:00,52.0,48.0,-100.00,NNW,346,4.0,7.0,87,0.00,,,0.00,0.000000,,2013-08-14 04:42:00,
2013-08-14 00:52:00,52.0,48.0,-100.00,NNW,346,4.0,7.0,87,0.00,,,0.00,0.000000,,2013-08-14 04:52:00,
2013-08-14 01:02:00,52.0,48.0,-100.00,NNW,346,4.0,7.0,87,0.00,,,0.00,0.000000,,2013-08-14 05:02:00,
2013-08-14 01:22:00,50.0,47.0,-100.00,NW,312,2.0,6.0,90,0.00,,,0.00,0.000000,,2013-08-14 05:22:00,
2013-08-14 01:32:00,50.0,47.0,-100.00,NW,312,2.0,6.0,90,0.00,,,0.00,0.000000,,2013-08-14 05:32:00,
2013-08-14 01:42:00,50.0,47.0,-100.00,NW,312,2.0,6.0,90,0.00,,,0.00,0.000000,,2013-08-14 05:42:00,
2013-08-14 01:52:00,50.0,47.0,-100.00,NW,312,2.0,6.0,90,0.00,,,0.00,0.000000,,2013-08-14 05:52:00,
2013-08-14 02:01:00,50.0,47.0,-100.00,NW,312,2.0,6.0,90,0.00,,,0.00,0.000000,,2013-08-14 06:01:00,
2013-08-14 02:42:00,48.0,46.0,-100.00,WNW,285,3.0,6.0,94,0.00,,,0.00,0.000000,,2013-08-14 06:42:00,
2013-08-14 02:52:00,48.0,46.0,-100.00,WNW,285,3.0,6.0,94,0.00,,,0.00,0.000000,,2013-08-14 06:52:00,
2013-08-14 03:01:00,48.0,46.0,-100.00,WNW,285,3.0,6.0,94,0.00,,,0.00,0.000000,,2013-08-14 07:01:00,
2013-08-14 03:21:00,48.0,47.0,-100.00,NW,313,3.0,6.0,96,0.00,,,0.00,0.000000,,2013-08-14 07:21:00,
2013-08-14 03:32:00,48.0,47.0,-100.00,NW,313,3.0,6.0,96,0.00,,,0.00,0.000000,,2013-08-14 07:32:00,
2013-08-14 03:42:00,48.0,47.0,-100.00,NW,313,3.0,6.0,96,0.00,,,0.00,0.000000,,2013-08-14 07:42:00,
2013-08-14 03:52:00,48.0,47.0,-100.00,NW,313,3.0,6.0,96,0.00,,,0.00,0.000000,,2013-08-14 07:52:00,
2013-08-14 04:01:00,48.0,47.0,-100.00,NW,313,3.0,6.0,96,0.00,,,0.00,0.000000,,2013-08-14 08:01:00,
2013-08-14 04:21:00,47.0,46.0,-100.00,West,273,4.0,6.0,96,0.00,,,0.00,0.000000,,2013-08-14 08:21:00,
2013-08-14 04:32:00,47.0,46.0,-100.00,West,273,4.0,6.0,96,0.00,,,0.00,0.000000,,2013-08-14 08:32:00,
2013-08-14 04:42:00,47.0,46.0,-100.00,West,273,4.0,6.0,96,0.00,,,0.00,0.000000,,2013-08-14 08:42:00,
2013-08-14 04:52:00,47.0,46.0,-100.00,West,273,4.0,6.0,96,0.00,,,0.00,0.000000,,2013-08-14 08:52:00,
2013-08-14 05:02:00,47.0,46.0,-100.00,West,273,4.0,6.0,96,0.00,,,0.00,0.000000,,2013-08-14 09:02:00,
2013-08-14 05:43:00,47.0,46.0,-100.00,NW,317,4.0,9.0,97,0.00,,,0.00,0.000000,,2013-08-14 09:43:00,
2013-08-14 05:53:00,47.0,46.0,-100.00,NW,317,4.0,9.0,97,0.00,,,0.00,0.000000,,2013-08-14 09:53:00,
2013-08-14 06:03:00,47.0,46.0,-100.00,NW,317,4.0,9.0,97,0.00,,,0.00,0.000000,,2013-08-14 10:03:00,
2013-08-14 06:23:00,45.0,44.0,-100.00,WNW,292,3.0,7.0,97,0.00,,,0.00,0.000000,,2013-08-14 10:23:00,
2013-08-14 06:32:00,45.0,44.0,-100.00,WNW,292,3.0,7.0,97,0.00,,,0.00,0.000000,,2013-08-14 10:32:00,
2013-08-14 06:43:00,45.0,44.0,-100.00,WNW,292,3.0,7.0,97,0.00,,,0.00,0.000000,,2013-08-14 10:43:00,
2013-08-14 06:53:00,45.0,44.0,-100.00,WNW,292,3.0,7.0,97,0.00,,,0.00,0.000000,,2013-08-14 10:53:00,
2013-08-14 07:02:00,45.0,44.0,-100.00,WNW,292,3.0,7.0,97,0.00,,,0.00,0.000000,,2013-08-14 11:02:00,
2013-08-14 07:21:00,45.0,44.0,-100.00,West,275,3.0,4.0,98,0.00,,,0.00,5.000000,,2013-08-14 11:21:00,
2013-08-14 07:32:00,45.0,44.0,-100.00,West,275,3.0,4.0,98,0.00,,,0.00,5.000000,,2013-08-14 11:32:00,
2013-08-14 07:42:00,45.0,44.0,-100.00,West,275,3.0,4.0,98,0.00,,,0.00,5.000000,,2013-08-14 11:42:00,
2013-08-14 07:52:00,45.0,44.0,-100.00,West,275,3.0,4.0,98,0.00,,,0.00,5.000000,,2013-08-14 11:52:00,
2013-08-14 08:01:00,45.0,44.0,-100.00,West,275,3.0,4.0,98,0.00,,,0.00,5.000000,,2013-08-14 12:01:00,
2013-08-14 08:42:00,50.0,49.0,-100.00,NW,311,4.0,7.0,97,0.00,,,0.00,77.000000,,2013-08-14 12:42:00,
2013-08-14 08:52:00,50.0,49.0,-100.00,NW,311,4.0,7.0,97,0.00,,,0.00,77.000000,,2013-08-14 12:52:00,
2013-08-14 09:02:00,50.0,49.0,-100.00,NW,311,4.0,7.0,97,0.00,,,0.00,77.000000,,2013-08-14 13:02:00,
2013-08-14 09:22:00,57.0,53.0,-100.00,NW,304,5.0,7.0,86,0.00,,,0.00,291.000000,,2013-08-14 13:22:00,
2013-08-14 09:31:00,57.0,53.0,-100.00,NW,304,5.0,7.0,86,0.00,,,0.00,291.000000,,2013-08-14 13:31:00,
2013-08-14 09:42:00,57.0,53.0,-100.00,NW,304,5.0,7.0,86,0.00,,,0.00,291.000000,,2013-08-14 13:42:00,
2013-08-14 09:52:00,57.0,53.0,-100.00,NW,304,5.0,7.0,86,0.00,,,0.00,291.000000,,2013-08-14 13:52:00,
2013-08-14 10:02:00,57.0,53.0,-100.00,NW,304,5.0,7.0,86,0.00,,,0.00,291.000000,,2013-08-14 14:02:00,
2013-08-14 10:42:00,62.0,50.0,-100.00,NW,320,7.0,14.0,64,0.00,,,0.00,490.000000,,2013-08-14 14:42:00,
2013-08-14 10:52:00,62.0,50.0,-100.00,NW,320,7.0,14.0,64,0.00,,,0.00,490.000000,,2013-08-14 14:52:00,
2013-08-14 11:02:00,62.0,50.0,-100.00,NW,320,7.0,14.0,64,0.00,,,0.00,490.000000,,2013-08-14 15:02:00,
2013-08-14 11:04:00,64.0,46.0,-100.00,NNW,343,9.0,17.0,52,0.00,,,0.00,692.000000,,2013-08-14 15:04:00,
2013-08-14 11:44:00,64.0,46.0,-100.00,NNW,343,9.0,17.0,52,0.00,,,0.00,692.000000,,2013-08-14 15:44:00,
2013-08-14 11:57:00,64.0,46.0,-100.00,NNW,343,9.0,17.0,52,0.00,,,0.00,692.000000,,2013-08-14 15:57:00,
2013-08-14 12:04:00,64.0,45.0,-100.00,NNW,334,7.0,16.0,51,0.00,,,0.00,683.000000,,2013-08-14 16:04:00,
2013-08-14 12:43:00,64.0,45.0,-100.00,NNW,334,7.0,16.0,51,0.00,,,0.00,683.000000,,2013-08-14 16:43:00,
2013-08-14 13:29:00,64.0,42.0,-100.00,NNW,343,7.0,17.0,44,0.00,,,0.00,515.000000,,2013-08-14 17:29:00,
2013-08-14 13:36:00,64.0,42.0,-100.00,NNW,343,7.0,17.0,44,0.00,,,0.00,515.000000,,2013-08-14 17:36:00,
2013-08-14 13:44:00,64.0,42.0,-100.00,NNW,343,7.0,17.0,44,0.00,,,0.00,515.000000,,2013-08-14 17:44:00,
2013-08-14 13:55:00,64.0,42.0,-100.00,NNW,343,7.0,17.0,44,0.00,,,0.00,515.000000,,2013-08-14 17:55:00,
2013-08-14 15:03:00,66.0,45.0,-100.00,NW,304,5.0,16.0,47,0.00,,,0.00,480.000000,,2013-08-14 19:03:00,
2013-08-14 15:04:00,68.0,44.0,-100.00,NNW,335,7.0,14.0,42,0.00,,,0.00,562.000000,,2013-08-14 19:04:00,
2013-08-14 15:42:00,68.0,44.0,-100.00,NNW,335,7.0,14.0,42,0.00,,,0.00,562.000000,,2013-08-14 19:42:00,
2013-08-14 15:58:00,68.0,44.0,-100.00,NNW,335,7.0,14.0,42,0.00,,,0.00,562.000000,,2013-08-14 19:58:00,
2013-08-14 16:04:00,67.0,43.0,-100.00,NNW,339,7.0,16.0,42,0.00,,,0.00,609.000000,,2013-08-14 20:04:00,
2013-08-14 16:49:00,67.0,43.0,-100.00,NNW,339,7.0,16.0,42,0.00,,,0.00,609.000000,,2013-08-14 20:49:00,
2013-08-14 17:04:00,69.0,42.0,-100.00,NNW,334,8.0,14.0,37,0.00,,,0.00,656.000000,,2013-08-14 21:04:00,
2013-08-14 17:24:00,69.0,42.0,-100.00,NNW,334,8.0,14.0,37,0.00,,,0.00,656.000000,,2013-08-14 21:24:00,
2013-08-14 17:34:00,69.0,42.0,-100.00,NNW,334,8.0,14.0,37,0.00,,,0.00,656.000000,,2013-08-14 21:34:00,
2013-08-14 17:45:00,69.0,42.0,-100.00,NNW,334,8.0,14.0,37,0.00,,,0.00,656.000000,,2013-08-14 21:45:00,
2013-08-14 17:55:00,69.0,42.0,-100.00,NNW,334,8.0,14.0,37,0.00,,,0.00,656.000000,,2013-08-14 21:55:00,
2013-08-14 18:04:00,68.0,41.0,-100.00,NW,322,6.0,16.0,38,0.00,,,0.00,481.000000,,2013-08-14 22:04:00,
2013-08-14 18:23:00,68.0,41.0,-100.00,NW,322,6.0,16.0,38,0.00,,,0.00,481.000000,,2013-08-14 22:23:00,
2013-08-14 18:35:00,68.0,41.0,-100.00,NW,322,6.0,16.0,38,0.00,,,0.00,481.000000,,2013-08-14 22:35:00,
2013-08-14 18:44:00,68.0,41.0,-100.00,NW,322,6.0,16.0,38,0.00,,,0.00,481.000000,,2013-08-14 22:44:00,
2013-08-14 18:55:00,68.0,41.0,-100.00,NW,322,6.0,16.0,38,0.00,,,0.00,481.000000,,2013-08-14 22:55:00,
2013-08-14 19:04:00,67.0,41.0,-100.00,NW,323,7.0,13.0,39,0.00,,,0.00,161.000000,,2013-08-14 23:04:00,
2013-08-14 19:46:00,67.0,41.0,-100.00,NW,323,7.0,13.0,39,0.00,,,0.00,161.000000,,2013-08-14 23:46:00,
2013-08-14 19:56:00,67.0,41.0,-100.00,NW,323,7.0,13.0,39,0.00,,,0.00,161.000000,,2013-08-14 23:56:00,
2013-08-14 20:23:00,65.0,41.0,-100.00,NW,324,4.0,11.0,41,0.00,,,0.00,180.000000,,2013-08-15 00:23:00,
2013-08-14 20:32:00,65.0,41.0,-100.00,NW,324,4.0,11.0,41,0.00,,,0.00,180.000000,,2013-08-15 00:32:00,
2013-08-14 20:43:00,65.0,41.0,-100.00,NW,324,4.0,11.0,41,0.00,,,0.00,180.000000,,2013-08-15 00:43:00,
2013-08-14 20:52:00,65.0,41.0,-100.00,NW,324,4.0,11.0,41,0.00,,,0.00,180.000000,,2013-08-15 00:52:00,
2013-08-14 21:01:00,65.0,41.0,-100.00,NW,324,4.0,11.0,41,0.00,,,0.00,180.000000,,2013-08-15 01:01:00,
2013-08-14 21:42:00,56.0,43.0,-100.00,West,261,0.0,5.0,62,0.00,,,0.00,19.000000,,2013-08-15 01:42:00,
2013-08-14 21:52:00,56.0,43.0,-100.00,West,261,0.0,5.0,62,0.00,,,0.00,19.000000,,2013-08-15 01:52:00,
2013-08-14 22:02:00,56.0,43.0,-100.00,West,261,0.0,5.0,62,0.00,,,0.00,19.000000,,2013-08-15 02:02:00,
2013-08-14 23:44:00,47.0,44.0,-100.00,South,186,0.0,0.0,90,0.00,,,0.00,0.000000,,2013-08-15 03:44:00,